EW4713 Weather Reports


Display with metric or nautical units.
time (UTC)temp
F
wind
direction
speed
MPH
gust
MPH
rain 1hr
in
rain 24hr
in
rain mn
in
humidity
%
barometer
mb
20260904113509 62 352 0.0 0.0 0.00 1.26 0.00 99 1008.5
20260904113008 62 352 0.0 0.0 0.00 1.26 0.00 99 1009.0
20260904112509 62 352 0.0 0.0 0.00 1.26 0.00 99 1008.5
20260904112007 62 352 0.0 0.0 0.00 1.26 0.00 99 1008.5
20260904111508 62 352 0.0 0.0 0.00 1.26 0.00 99 1008.2
20260904111007 62 352 0.0 1.0 0.00 1.26 0.00 99 1008.2
20260904105007 62 270 0.0 2.0 0.00 1.26 0.00 99 1008.5
20260904104505 62 331 0.0 2.0 0.00 1.26 0.00 99 1008.2
20260904104005 62 297 0.0 1.0 0.00 1.26 0.00 99 1008.2
20260904103506 62 0 0.0 0.0 0.00 1.26 0.00 99 1007.9
20260904103005 61 0 0.0 0.0 0.00 1.26 0.00 99 1008.2
20260904102502 62 0 0.0 0.0 0.00 1.26 0.00 99 1008.2
20260904101502 61 0 0.0 0.0 0.00 1.26 0.00 99 1008.2
20260904101001 61 0 0.0 0.0 0.00 1.26 0.00 99 1008.2
20260904100502 61 0 0.0 0.0 0.00 1.26 0.00 99 1008.2
20260904100001 61 0 0.0 0.0 0.00 1.26 0.00 99 1007.9
20260904095503 61 0 0.0 0.0 0.00 1.26 0.00 99 1007.9
20260904095001 61 0 0.0 0.0 0.00 1.26 0.00 99 1008.2
20260904094503 61 0 0.0 0.0 0.00 1.26 0.00 99 1008.2
20260904094000 61 0 0.0 1.0 0.00 1.26 0.00 99 1007.9
20260904092502 61 352 0.0 0.0 0.00 1.26 0.00 99 1007.9
20260904092000 61 352 0.0 0.0 0.00 1.26 0.00 99 1007.9
20260904091502 61 352 0.0 0.0 0.00 1.26 0.00 99 1007.5
20260904091000 61 352 0.0 0.0 0.00 1.26 0.00 99 1007.5
20260904090459 61 352 0.0 2.0 0.00 1.26 0.00 99 1007.5
20260904084958 61 215 0.0 0.0 0.00 1.26 0.00 99 1007.5
20260904084459 61 215 0.0 1.0 0.00 1.26 0.00 99 1007.5
20260904083457 61 353 0.0 1.0 0.00 1.26 0.00 99 1007.5
20260904082457 61 348 0.0 0.0 0.00 1.26 0.00 99 1007.2
20260904081957 61 348 0.0 0.0 0.00 1.26 0.00 99 1006.9
20260904081456 61 348 0.0 0.0 0.00 1.26 0.00 99 1006.9
20260904080957 61 348 0.0 1.0 0.00 1.26 0.00 99 1006.9
20260904080456 61 348 0.0 2.0 0.00 1.26 0.00 99 1006.9
20260904074955 61 286 0.0 0.0 0.00 1.26 0.00 99 1006.9
20260904074456 62 286 0.0 2.0 0.00 1.26 0.00 99 1006.9
20260904073955 62 286 0.0 2.0 0.00 1.26 0.00 99 1006.9
20260904073454 62 337 0.0 2.0 0.00 1.26 0.00 99 1006.9
20260904072953 62 254 0.0 2.0 0.00 1.26 0.00 99 1006.9
20260904071953 62 246 0.0 2.0 0.00 1.26 0.00 99 1006.9
20260904071454 62 286 0.0 2.0 0.00 1.26 0.00 99 1006.9
20260904070952 62 254 0.0 2.0 0.00 1.26 0.00 99 1006.9
20260904070454 62 254 0.0 2.0 0.00 1.26 0.00 99 1006.9
20260904065952 62 353 0.0 3.0 0.00 1.26 0.00 99 1007.2
20260904065453 62 300 2.0 3.0 0.00 1.26 0.00 99 1006.9
20260904064951 62 327 0.0 2.0 0.00 1.26 0.00 99 1006.9
20260904064452 62 294 0.0 2.0 0.00 1.26 0.00 99 1006.9
20260904062450 62 345 0.0 4.0 0.00 1.26 0.00 99 1006.9
20260904061950 62 279 0.0 4.0 0.00 1.26 0.00 99 1006.9
20260904061451 62 355 0.0 3.0 0.00 1.26 0.00 99 1007.2
20260904060949 62 348 3.0 4.0 0.00 1.26 0.00 99 1006.9
20260904055948 62 8 0.0 3.0 0.00 1.26 0.00 99 1007.2
20260904055449 62 332 0.0 3.0 0.00 1.26 0.00 99 1006.9
20260904054948 61 325 0.0 3.0 0.00 1.26 0.00 99 1007.2
20260904054448 61 279 0.0 3.0 0.00 1.26 0.00 99 1006.9
20260904053948 62 320 2.0 3.0 0.00 1.26 0.00 99 1007.2
20260904053448 62 229 0.0 3.0 0.00 1.26 0.00 99 1007.2
20260904052947 62 255 0.0 3.0 0.00 1.26 0.00 99 1006.9
20260904052448 62 261 0.0 3.0 0.00 1.26 0.00 99 1006.9
20260904051946 62 282 2.0 4.0 0.00 1.26 0.00 99 1006.9
20260904051447 62 282 0.0 4.0 0.00 1.26 0.00 99 1006.9
20260904050945 62 331 1.0 4.0 0.01 1.26 0.00 99 1006.9
20260904050445 62 283 1.0 5.0 0.01 1.26 0.00 99 1006.5
20260904045945 62 303 2.0 5.0 0.01 1.26 1.26 99 1006.9
20260904045444 62 311 2.0 4.0 0.01 1.26 1.26 99 1006.9
20260904044944 63 323 2.0 4.0 0.01 1.26 1.26 99 1006.9
20260904044443 63 303 3.0 4.0 0.01 1.26 1.26 99 1006.9
20260904043944 63 295 4.0 4.0 0.01 1.26 1.26 99 1007.2
20260904043444 63 270 1.0 3.0 0.01 1.26 1.26 99 1007.5
20260904042943 63 254 1.0 2.0 0.01 1.26 1.26 99 1007.5
20260904042444 63 311 2.0 2.0 0.01 1.26 1.26 99 1007.5
20260904041942 62 0 0.0 0.0 0.03 1.26 1.26 99 1007.5
20260904041444 62 0 0.0 0.0 0.08 1.26 1.26 99 1007.9
20260904040941 62 0 0.0 1.0 0.16 1.25 1.25 99 1007.9
20260904040443 62 0 0.0 2.0 0.37 1.25 1.25 99 1007.5
20260904035941 62 337 0.0 2.0 0.45 1.25 1.25 99 1007.2
20260904035443 63 254 0.0 3.0 0.47 1.25 1.25 99 1007.2
20260904034940 63 294 0.0 3.0 0.47 1.25 1.25 99 1007.2
20260904034442 63 286 1.0 3.0 0.47 1.25 1.25 99 1007.2
20260904033940 63 297 0.0 5.0 0.47 1.25 1.25 99 1006.9
20260904033441 63 270 0.0 5.0 0.47 1.25 1.25 99 1006.9
20260904032939 63 264 1.0 6.0 0.47 1.25 1.25 99 1007.2
20260904032441 63 270 2.0 6.0 0.47 1.25 1.25 99 1006.9
20260904031938 63 298 3.0 6.0 0.44 1.22 1.22 99 1007.2
20260904031438 63 301 2.0 4.0 0.39 1.17 1.16 99 1007.9
20260904030440 64 229 0.0 4.0 0.10 0.88 0.87 99 1008.5
20260904025937 64 353 0.0 3.0 0.02 0.80 0.79 99 1008.5
20260904025437 65 194 0.0 3.0 0.00 0.78 0.78 99 1008.5
20260904024937 65 180 1.0 6.0 0.00 0.78 0.78 99 1007.2
20260904024438 65 235 2.0 6.0 0.00 0.78 0.78 99 1006.1
20260904023438 64 319 2.0 6.0 0.00 0.78 0.78 99 1005.7
20260904022936 64 337 2.0 6.0 0.00 0.78 0.78 99 1005.7
20260904022437 64 285 5.0 5.0 0.00 0.78 0.78 99 1005.7
20260904021935 64 295 4.0 6.0 0.00 0.78 0.78 99 1005.4
20260904021435 64 268 5.0 6.0 0.00 0.78 0.78 99 1005.4
20260904020435 64 270 2.0 5.0 0.00 0.78 0.78 99 1005.4
20260904015934 64 247 2.0 5.0 0.00 0.78 0.78 99 1005.4
20260904015435 63 355 2.0 7.0 0.00 0.78 0.78 99 1005.4
20260904014431 63 305 2.0 6.0 0.00 0.78 0.78 99 1005.1
20260904013929 63 285 0.0 6.0 0.00 0.78 0.78 99 1005.1
20260904013431 63 257 2.0 6.0 0.00 0.78 0.78 99 1005.4
20260904012929 63 252 2.0 6.0 0.00 0.78 0.78 99 1005.4
20260904012430 63 243 2.0 7.0 0.00 0.78 0.78 99 1005.4
20260904011930 63 277 4.0 7.0 0.00 0.78 0.78 99 1005.7
20260904011429 64 273 3.0 6.0 0.00 0.78 0.78 99 1005.7
20260904010929 63 270 1.0 6.0 0.00 0.78 0.78 99 1005.7
20260904010429 63 289 1.0 4.0 0.00 0.78 0.78 99 1005.7
20260904005929 64 281 2.0 3.0 0.00 0.78 0.78 99 1005.7
20260904005430 64 297 1.0 3.0 0.00 0.78 0.78 99 1005.7
20260904004929 64 331 0.0 6.0 0.00 0.78 0.78 99 1005.7
20260904004431 64 139 2.0 6.0 0.00 0.78 0.78 99 1005.4
20260904003929 64 268 5.0 6.0 0.00 0.78 0.78 99 1005.1
20260904003430 64 299 2.0 4.0 0.00 0.78 0.78 99 1005.1
20260904002929 64 335 3.0 4.0 0.00 0.78 0.78 99 1005.7
20260904002429 64 289 1.0 3.0 0.00 0.78 0.78 99 1006.1
20260904001928 64 229 0.0 3.0 0.00 0.78 0.78 99 1005.7
20260904001429 64 285 1.0 2.0 0.00 0.78 0.78 99 1006.1
20260904000928 65 281 2.0 2.0 0.00 0.78 0.78 99 1005.7
20260904000427 65 331 2.0 2.0 0.00 0.78 0.78 99 1005.7
20260903235926 65 249 0.0 3.0 0.00 0.78 0.78 99 1005.7
20260903235428 65 246 0.0 3.0 0.00 0.78 0.78 99 1005.7
20260903234927 65 334 1.0 2.0 0.00 0.78 0.78 99 1005.7
20260903234431 65 77 0.0 3.0 0.01 0.78 0.78 99 1005.7
20260903233926 65 270 1.0 3.0 0.01 0.78 0.78 99 1005.7
20260903233425 65 337 0.0 2.0 0.01 0.78 0.78 99 1006.1
20260903232925 65 0 0.0 2.0 0.01 0.78 0.78 99 1006.1
20260903232426 65 63 0.0 4.0 0.02 0.78 0.78 99 1006.5
20260903231924 65 180 0.0 4.0 0.05 0.78 0.78 99 1005.4
20260903231426 65 295 2.0 2.0 0.13 0.78 0.78 99 1005.1
20260903230923 65 99 0.0 3.0 0.13 0.78 0.78 99 1006.1
20260903230425 65 90 1.0 5.0 0.13 0.78 0.78 99 1005.7
20260903225923 65 270 0.0 5.0 0.14 0.78 0.78 99 1005.1
20260903225425 65 243 0.0 6.0 0.19 0.78 0.78 99 1004.7
20260903224923 65 227 0.0 6.0 0.30 0.78 0.77 99 1005.1
20260903224423 65 267 0.0 5.0 0.64 0.77 0.77 99 1004.4
20260903223922 65 69 3.0 5.0 0.77 0.77 0.77 99 1004.0
20260903223421 65 265 2.0 8.0 0.77 0.77 0.77 99 1004.0
20260903222922 65 23 0.0 8.0 0.77 0.77 0.77 99 1004.4
20260903222423 65 276 1.0 6.0 0.76 0.76 0.76 99 1004.0
20260903221921 65 345 2.0 6.0 0.71 0.71 0.70 99 1005.1
20260903221422 65 180 0.0 5.0 0.65 0.65 0.65 99 1006.9
20260903220420 65 98 1.0 4.0 0.65 0.65 0.65 99 1006.9
20260903215919 65 130 2.0 7.0 0.64 0.64 0.63 99 1006.9
20260903215421 65 14 0.0 8.0 0.59 0.59 0.58 98 1006.9
20260903214919 65 23 2.0 8.0 0.48 0.48 0.35 97 1007.2
20260903214420 66 159 2.0 11.0 0.13 0.13 0.06 93 1007.2
20260903213918 72 188 0.0 11.0 0.00 0.00 0.00 82 1007.2
20260903213403 76 143 2.0 4.0 0.00 0.00 0.00 74 1006.5
20260903212901 76 90 0.0 5.0 0.00 0.00 0.00 75 1004.7
20260903212403 77 106 0.0 10.0 0.00 0.00 0.00 73 1004.0
20260903211900 77 270 2.0 10.0 0.00 0.00 0.00 72 1003.6
20260903211403 78 246 5.0 10.0 0.00 0.00 0.00 70 1004.0
20260903205901 78 338 3.0 9.0 0.00 0.00 0.00 71 1004.0
20260903205401 78 304 4.0 9.0 0.00 0.00 0.00 69 1004.4
20260903204901 78 270 2.0 9.0 0.00 0.00 0.00 69 1004.7
20260903204401 79 322 5.0 11.0 0.00 0.00 0.00 68 1004.4
20260903203901 80 270 2.0 11.0 0.00 0.00 0.00 68 1004.4
20260903203401 80 233 2.0 11.0 0.00 0.00 0.00 69 1004.0
20260903202902 80 266 2.0 11.0 0.00 0.00 0.00 67 1004.4
20260903202401 80 294 5.0 7.0 0.00 0.00 0.00 67 1004.4
20260903201902 80 243 2.0 8.0 0.00 0.00 0.00 65 1004.7
20260903201400 81 278 0.0 9.0 0.00 0.00 0.00 66 1004.4
20260903200901 80 247 4.0 9.0 0.00 0.00 0.00 67 1005.1
20260903200403 80 241 3.0 5.0 0.00 0.00 0.00 66 1004.7
20260903195901 80 334 4.0 5.0 0.00 0.00 0.00 66 1005.1
20260903195400 80 248 2.0 6.0 0.00 0.00 0.00 66 1005.1
20260903194901 80 255 2.0 8.0 0.00 0.00 0.00 67 1005.1
20260903193901 80 288 4.0 9.0 0.00 0.00 0.00 66 1005.4
20260903193401 81 275 4.0 9.0 0.00 0.00 0.00 65 1005.1
20260903192901 81 313 3.0 9.0 0.00 0.00 0.00 66 1005.1
20260903191902 81 315 2.0 7.0 0.00 0.00 0.00 66 1005.4
20260903191400 80 289 2.0 7.0 0.00 0.00 0.00 66 1005.4
20260903190901 80 286 3.0 6.0 0.00 0.00 0.00 67 1005.7
20260903190402 79 0 2.0 7.0 0.00 0.00 0.00 67 1005.7
20260903185901 80 205 3.0 7.0 0.00 0.00 0.00 67 1006.1
20260903185402 79 267 3.0 5.0 0.00 0.00 0.00 68 1006.1
20260903184900 79 270 2.0 8.0 0.00 0.00 0.00 67 1005.7
20260903183901 80 313 3.0 8.0 0.00 0.00 0.00 65 1005.7
20260903183402 80 297 2.0 8.0 0.00 0.00 0.00 66 1006.1
20260903182901 80 165 0.0 9.0 0.00 0.00 0.00 67 1006.1
20260903182402 80 222 3.0 10.0 0.00 0.00 0.00 66 1005.7
20260903181901 79 223 4.0 10.0 0.00 0.00 0.00 65 1005.7
20260903181402 80 222 3.0 7.0 0.00 0.00 0.00 65 1005.7
20260903180901 79 243 2.0 8.0 0.00 0.00 0.00 66 1005.4
20260903180402 79 276 5.0 8.0 0.00 0.00 0.00 66 1005.4
20260903175901 79 283 4.0 10.0 0.00 0.00 0.00 64 1005.7
20260903175402 78 315 3.0 10.0 0.00 0.00 0.00 66 1005.4
20260903174900 78 285 2.0 7.0 0.00 0.00 0.00 65 1005.4
20260903174403 79 281 2.0 9.0 0.00 0.00 0.00 65 1005.7
20260903173902 79 277 1.0 9.0 0.00 0.00 0.00 66 1005.7
20260903173402 78 305 4.0 11.0 0.00 0.00 0.00 65 1005.7
20260903172901 78 349 4.0 11.0 0.00 0.00 0.00 64 1005.7
20260903172402 78 334 2.0 6.0 0.00 0.00 0.00 66 1005.7
20260903171901 78 243 2.0 6.0 0.00 0.00 0.00 66 1005.7
20260903170403 77 283 6.0 9.0 0.00 0.00 0.00 64 1006.1
20260903165901 77 288 4.0 9.0 0.00 0.00 0.00 64 1006.1
20260903165402 76 326 0.0 11.0 0.00 0.00 0.00 64 1006.1
20260903164900 76 266 2.0 11.0 0.00 0.00 0.00 66 1006.1
20260903164403 76 282 5.0 9.0 0.00 0.00 0.00 64 1006.1
20260903162402 74 282 4.0 12.0 0.00 0.00 0.00 66 1006.9
20260903161859 74 270 1.0 9.0 0.00 0.00 0.00 66 1006.9
20260903161400 74 277 7.0 7.0 0.00 0.00 0.00 66 1006.9
20260903160858 74 186 0.0 6.0 0.00 0.00 0.00 67 1006.9
20260903160400 74 270 2.0 8.0 0.00 0.00 0.00 66 1006.9
20260903155858 74 322 3.0 8.0 0.00 0.00 0.00 68 1007.2
20260903155359 74 231 3.0 8.0 0.00 0.00 0.00 68 1006.9
20260903154359 73 270 2.0 6.0 0.00 0.00 0.00 68 1007.2
20260903153857 73 345 2.0 8.0 0.00 0.00 0.00 69 1006.9
20260903152358 72 329 4.0 9.0 0.00 0.00 0.00 68 1007.2
20260903151856 72 288 2.0 9.0 0.00 0.00 0.00 69 1007.2
20260903151357 73 270 2.0 6.0 0.00 0.00 0.00 71 1007.2
20260903150855 72 339 2.0 12.0 0.00 0.00 0.00 71 1007.5
20260903150358 72 322 3.0 12.0 0.00 0.00 0.00 72 1007.5
20260903145854 72 270 3.0 7.0 0.00 0.00 0.00 74 1007.2
20260903145356 71 270 2.0 7.0 0.00 0.00 0.00 73 1007.2
20260903144854 71 307 2.0 6.0 0.00 0.00 0.00 75 1007.2
20260903144355 71 312 0.0 8.0 0.00 0.00 0.00 74 1007.5
20260903143853 71 294 3.0 8.0 0.00 0.00 0.00 75 1007.5
20260903143353 71 228 2.0 8.0 0.00 0.00 0.00 75 1007.9
20260903142853 71 294 3.0 11.0 0.00 0.00 0.00 75 1007.5
20260903141854 71 270 2.0 9.0 0.00 0.00 0.00 76 1007.5
20260903141351 71 263 1.0 5.0 0.00 0.00 0.00 77 1007.9
20260903140852 71 270 1.0 5.0 0.00 0.00 0.00 77 1007.9
20260903140353 70 276 1.0 6.0 0.00 0.00 0.00 78 1008.2
20260903135333 70 320 2.0 7.0 0.00 0.00 0.00 79 1007.9
20260903134829 69 2 4.0 7.0 0.00 0.00 0.00 80 1007.9
20260903134330 69 258 2.0 4.0 0.00 0.00 0.00 80 1007.9
20260903133829 70 278 0.0 4.0 0.00 0.00 0.00 80 1008.2
20260903133331 68 345 3.0 4.0 0.00 0.00 0.00 83 1008.2
20260903132829 67 287 4.0 6.0 0.00 0.00 0.00 83 1007.9
20260903131829 66 0 0.0 4.0 0.00 0.00 0.00 86 1008.2
20260903131332 64 292 2.0 4.0 0.00 0.00 0.00 89 1007.9
20260903130829 64 285 1.0 4.0 0.00 0.00 0.00 91 1007.9
20260903125829 63 301 2.0 4.0 0.00 0.00 0.00 92 1008.2
20260903125332 62 287 3.0 5.0 0.00 0.00 0.00 92 1008.2
20260903124829 62 270 2.0 5.0 0.00 0.00 0.00 93 1007.9
20260903124332 62 0 0.0 4.0 0.00 0.00 0.00 93 1007.9
20260903123829 62 311 2.0 4.0 0.00 0.00 0.00 93 1007.9
20260903123330 61 254 0.0 4.0 0.00 0.00 0.00 94 1007.9
20260903122829 61 320 0.0 4.0 0.00 0.00 0.00 94 1008.5
20260903122332 61 261 0.0 4.0 0.00 0.00 0.00 94 1008.2
20260903121829 61 286 1.0 2.0 0.00 0.00 0.00 95 1008.2
20260903121331 60 251 0.0 4.0 0.00 0.00 0.00 94 1008.2
20260903120828 61 318 0.0 4.0 0.00 0.00 0.00 95 1008.5
20260903120333 60 257 0.0 4.0 0.00 0.00 0.00 95 1008.2
20260903115829 60 282 2.0 3.0 0.00 0.00 0.00 95 1008.2
20260903115333 60 279 2.0 5.0 0.00 0.00 0.00 96 1007.9
20260903114828 60 277 1.0 5.0 0.00 0.00 0.00 96 1008.2
20260903114331 60 276 0.0 3.0 0.00 0.00 0.00 96 1007.9